| time (UTC) | temp F | wind direction | speed MPH | gust MPH | rain 1hr in | rain 24hr in | rain mn in | humidity % | barometer mb |
| 20260507164017 | 58 | 293 | 3.0 | 6.0 | 0.00 | 0.00 | 0.00 | 68 | 1018.3 |
| 20260507163017 | 57 | 270 | 3.0 | 7.0 | 0.00 | 0.00 | 0.00 | 69 | 1018.5 |
| 20260507162016 | 57 | 270 | 5.0 | 13.0 | 0.00 | 0.00 | 0.00 | 67 | 1018.4 |
| 20260507161017 | 57 | 270 | 5.0 | 13.0 | 0.00 | 0.00 | 0.00 | 71 | 1018.4 |
| 20260507160018 | 57 | 270 | 3.0 | 18.0 | 0.00 | 0.00 | 0.00 | 73 | 1018.4 |
| 20260507155017 | 56 | 293 | 4.0 | 13.0 | 0.00 | 0.00 | 0.00 | 72 | 1018.5 |
| 20260507154037 | 56 | 270 | 4.0 | 15.0 | 0.00 | 0.00 | 0.00 | 72 | 1018.6 |
| 20260507153017 | 55 | 293 | 5.0 | 12.0 | 0.00 | 0.00 | 0.00 | 74 | 1018.4 |
| 20260507152023 | 55 | 338 | 4.0 | 13.0 | 0.00 | 0.00 | 0.00 | 75 | 1018.5 |
| 20260507151037 | 55 | 293 | 4.0 | 15.0 | 0.00 | 0.00 | 0.00 | 75 | 1018.7 |
| 20260507150036 | 55 | 315 | 3.0 | 13.0 | 0.00 | 0.00 | 0.00 | 76 | 1018.7 |
| 20260507145017 | 54 | 293 | 4.0 | 11.0 | 0.00 | 0.00 | 0.00 | 76 | 1018.9 |
| 20260507144037 | 54 | 225 | 1.0 | 3.0 | 0.00 | 0.00 | 0.00 | 78 | 1018.8 |
| 20260507143018 | 53 | 203 | 1.0 | 4.0 | 0.00 | 0.00 | 0.00 | 79 | 1018.9 |
| 20260507142017 | 52 | 248 | 4.0 | 11.0 | 0.00 | 0.00 | 0.00 | 80 | 1018.8 |
| 20260507141016 | 52 | 293 | 3.0 | 9.0 | 0.00 | 0.00 | 0.00 | 81 | 1018.6 |
| 20260507140016 | 52 | 0 | 3.0 | 13.0 | 0.00 | 0.00 | 0.00 | 80 | 1018.4 |
| 20260507135057 | 52 | 293 | 5.0 | 14.0 | 0.00 | 0.00 | 0.00 | 80 | 1018.2 |
| 20260507134016 | 52 | 270 | 4.0 | 12.0 | 0.00 | 0.00 | 0.00 | 81 | 1018.1 |
| 20260507133017 | 52 | 270 | 2.0 | 6.0 | 0.00 | 0.00 | 0.00 | 81 | 1018.1 |
| 20260507132016 | 52 | 270 | 3.0 | 7.0 | 0.00 | 0.00 | 0.00 | 81 | 1018.1 |
| 20260507131016 | 52 | 270 | 4.0 | 13.0 | 0.00 | 0.00 | 0.00 | 81 | 1018.3 |
| 20260507130016 | 52 | 293 | 3.0 | 9.0 | 0.00 | 0.00 | 0.00 | 81 | 1018.2 |
| 20260507125016 | 52 | 270 | 5.0 | 13.0 | 0.00 | 0.00 | 0.00 | 81 | 1018.1 |
| 20260507124016 | 52 | 203 | 2.0 | 5.0 | 0.00 | 0.00 | 0.00 | 81 | 1018.2 |
| 20260507123016 | 53 | 270 | 3.0 | 11.0 | 0.00 | 0.00 | 0.00 | 81 | 1018.0 |
| 20260507122016 | 53 | 270 | 3.0 | 11.0 | 0.00 | 0.00 | 0.00 | 80 | 1018.2 |
| 20260507121016 | 53 | 293 | 3.0 | 7.0 | 0.00 | 0.00 | 0.00 | 80 | 1018.2 |
| 20260507120016 | 53 | 315 | 4.0 | 11.0 | 0.00 | 0.00 | 0.00 | 80 | 1018.2 |
| 20260507115016 | 53 | 293 | 3.0 | 7.0 | 0.00 | 0.00 | 0.00 | 80 | 1018.0 |
| 20260507114016 | 54 | 23 | 2.0 | 6.0 | 0.00 | 0.00 | 0.00 | 79 | 1018.1 |
| 20260507113016 | 54 | 293 | 4.0 | 10.0 | 0.00 | 0.00 | 0.00 | 79 | 1018.0 |
| 20260507112055 | 53 | 270 | 4.0 | 12.0 | 0.00 | 0.00 | 0.00 | 80 | 1017.8 |
| 20260507111017 | 54 | 270 | 3.0 | 7.0 | 0.00 | 0.00 | 0.00 | 80 | 1017.8 |
| 20260507110016 | 54 | 270 | 3.0 | 7.0 | 0.00 | 0.00 | 0.00 | 79 | 1017.8 |
| 20260507105016 | 54 | 248 | 3.0 | 9.0 | 0.00 | 0.00 | 0.00 | 80 | 1017.6 |
| 20260507104016 | 54 | 248 | 4.0 | 14.0 | 0.00 | 0.00 | 0.00 | 80 | 1017.6 |
| 20260507103017 | 54 | 270 | 5.0 | 13.0 | 0.00 | 0.00 | 0.00 | 79 | 1017.6 |
| 20260507102036 | 54 | 158 | 3.0 | 12.0 | 0.00 | 0.00 | 0.00 | 79 | 1017.7 |
| 20260507101036 | 55 | 293 | 4.0 | 10.0 | 0.00 | 0.00 | 0.00 | 79 | 1017.7 |
| 20260507100015 | 55 | 270 | 5.0 | 17.0 | 0.00 | 0.00 | 0.00 | 79 | 1017.7 |
| 20260507095016 | 55 | 293 | 3.0 | 6.0 | 0.00 | 0.00 | 0.00 | 79 | 1017.7 |
| 20260507094016 | 55 | 270 | 3.0 | 7.0 | 0.00 | 0.00 | 0.00 | 79 | 1017.7 |
| 20260507093037 | 55 | 293 | 3.0 | 9.0 | 0.00 | 0.00 | 0.00 | 79 | 1017.8 |
| 20260507092016 | 55 | 225 | 3.0 | 10.0 | 0.00 | 0.00 | 0.00 | 79 | 1017.8 |
| 20260507091016 | 55 | 270 | 4.0 | 12.0 | 0.00 | 0.00 | 0.00 | 79 | 1017.8 |
| 20260507090016 | 55 | 203 | 3.0 | 13.0 | 0.00 | 0.00 | 0.00 | 79 | 1017.8 |
| 20260507085015 | 55 | 270 | 3.0 | 13.0 | 0.00 | 0.00 | 0.00 | 79 | 1017.9 |
| 20260507084016 | 55 | 270 | 3.0 | 12.0 | 0.00 | 0.00 | 0.00 | 79 | 1017.9 |
| 20260507083016 | 55 | 270 | 4.0 | 11.0 | 0.00 | 0.00 | 0.00 | 79 | 1017.9 |
| 20260507082015 | 56 | 248 | 4.0 | 14.0 | 0.00 | 0.00 | 0.00 | 79 | 1017.9 |
| 20260507081035 | 56 | 315 | 3.0 | 12.0 | 0.00 | 0.00 | 0.00 | 79 | 1017.8 |
| 20260507080037 | 56 | 248 | 5.0 | 13.0 | 0.00 | 0.00 | 0.00 | 78 | 1017.7 |
| 20260507075017 | 57 | 270 | 6.0 | 18.0 | 0.00 | 0.00 | 0.00 | 79 | 1017.6 |
| 20260507074016 | 57 | 270 | 7.0 | 14.0 | 0.00 | 0.00 | 0.00 | 79 | 1017.8 |
| 20260507073017 | 56 | 270 | 5.0 | 19.0 | 0.00 | 0.00 | 0.00 | 79 | 1017.7 |
| 20260507072017 | 56 | 293 | 4.0 | 10.0 | 0.00 | 0.00 | 0.00 | 79 | 1017.8 |
| 20260507071017 | 57 | 248 | 5.0 | 13.0 | 0.00 | 0.00 | 0.00 | 79 | 1017.8 |
| 20260507070017 | 57 | 293 | 5.0 | 15.0 | 0.00 | 0.00 | 0.00 | 79 | 1017.8 |
| 20260507065017 | 57 | 270 | 5.0 | 14.0 | 0.00 | 0.00 | 0.00 | 79 | 1018.0 |
| 20260507064017 | 58 | 270 | 4.0 | 10.0 | 0.00 | 0.00 | 0.00 | 78 | 1018.0 |
| 20260507063017 | 58 | 203 | 4.0 | 10.0 | 0.00 | 0.00 | 0.00 | 79 | 1018.0 |
| 20260507062037 | 58 | 270 | 4.0 | 9.0 | 0.00 | 0.00 | 0.00 | 78 | 1018.1 |
| 20260507061037 | 58 | 293 | 3.0 | 7.0 | 0.00 | 0.00 | 0.00 | 79 | 1018.1 |
| 20260507060017 | 58 | 293 | 3.0 | 11.0 | 0.00 | 0.00 | 0.00 | 78 | 1018.0 |
| 20260507055017 | 58 | 293 | 2.0 | 6.0 | 0.00 | 0.00 | 0.00 | 78 | 1018.1 |
| 20260507054035 | 59 | 293 | 4.0 | 14.0 | 0.00 | 0.00 | 0.00 | 78 | 1018.2 |
| 20260507053017 | 59 | 293 | 3.0 | 15.0 | 0.00 | 0.00 | 0.00 | 77 | 1018.2 |
| 20260507052017 | 59 | 180 | 2.0 | 11.0 | 0.00 | 0.00 | 0.00 | 77 | 1018.3 |
| 20260507051017 | 60 | 270 | 4.0 | 9.0 | 0.00 | 0.00 | 0.00 | 77 | 1018.2 |
| 20260507050017 | 60 | 270 | 3.0 | 10.0 | 0.00 | 0.00 | 0.00 | 77 | 1018.4 |
| 20260507045017 | 60 | 270 | 4.0 | 14.0 | 0.00 | 0.00 | 0.00 | 76 | 1018.2 |
| 20260507044017 | 60 | 270 | 6.0 | 16.0 | 0.00 | 0.00 | 0.00 | 76 | 1018.1 |
| 20260507043037 | 61 | 270 | 5.0 | 16.0 | 0.00 | 0.00 | 0.00 | 76 | 1018.2 |
| 20260507042017 | 61 | 270 | 4.0 | 9.0 | 0.00 | 0.00 | 0.00 | 75 | 1018.0 |
| 20260507041017 | 61 | 270 | 4.0 | 13.0 | 0.00 | 0.00 | 0.00 | 75 | 1018.0 |
| 20260507040055 | 61 | 270 | 5.0 | 12.0 | 0.00 | 0.00 | 0.00 | 74 | 1017.9 |
| 20260507035520 | 61 | 270 | 5.0 | 14.0 | 0.00 | 0.00 | 0.00 | 74 | 1017.9 |
| 20260507034519 | 62 | 270 | 4.0 | 9.0 | 0.00 | 0.00 | 0.00 | 73 | 1017.7 |
| 20260507033516 | 62 | 248 | 4.0 | 9.0 | 0.00 | 0.00 | 0.00 | 72 | 1017.6 |
| 20260507032516 | 62 | 293 | 3.0 | 9.0 | 0.00 | 0.00 | 0.00 | 70 | 1017.5 |
| 20260507031516 | 63 | 270 | 4.0 | 11.0 | 0.00 | 0.00 | 0.00 | 69 | 1017.5 |
| 20260507030536 | 64 | 293 | 5.0 | 17.0 | 0.00 | 0.00 | 0.00 | 66 | 1017.4 |
| 20260507025536 | 64 | 270 | 5.0 | 11.0 | 0.00 | 0.00 | 0.00 | 65 | 1017.2 |
| 20260507024516 | 64 | 270 | 3.0 | 10.0 | 0.00 | 0.00 | 0.00 | 64 | 1017.3 |
| 20260507023517 | 65 | 248 | 5.0 | 14.0 | 0.00 | 0.00 | 0.00 | 62 | 1017.4 |
| 20260507022516 | 65 | 270 | 4.0 | 11.0 | 0.00 | 0.00 | 0.00 | 61 | 1017.3 |
| 20260507021516 | 66 | 270 | 5.0 | 12.0 | 0.00 | 0.00 | 0.00 | 59 | 1017.3 |
| 20260507020516 | 66 | 270 | 5.0 | 14.0 | 0.00 | 0.00 | 0.00 | 59 | 1017.4 |
| 20260507015516 | 66 | 270 | 5.0 | 13.0 | 0.00 | 0.00 | 0.00 | 59 | 1017.4 |
| 20260507014536 | 67 | 270 | 4.0 | 12.0 | 0.00 | 0.00 | 0.00 | 60 | 1017.4 |
| 20260507013516 | 67 | 248 | 4.0 | 11.0 | 0.00 | 0.00 | 0.00 | 59 | 1017.4 |
| 20260507012518 | 67 | 270 | 4.0 | 13.0 | 0.00 | 0.00 | 0.00 | 60 | 1017.3 |
| 20260507011516 | 67 | 270 | 6.0 | 14.0 | 0.00 | 0.00 | 0.00 | 57 | 1017.5 |
| 20260507010516 | 68 | 270 | 4.0 | 11.0 | 0.00 | 0.00 | 0.00 | 59 | 1017.4 |
| 20260507005541 | 68 | 270 | 3.0 | 9.0 | 0.00 | 0.00 | 0.00 | 59 | 1017.5 |
| 20260507005016 | 69 | 315 | 3.0 | 8.0 | 0.00 | 0.00 | 0.00 | 57 | 1017.5 |
| 20260507004016 | 69 | 270 | 5.0 | 12.0 | 0.00 | 0.00 | 0.00 | 56 | 1017.5 |
| 20260507003036 | 69 | 315 | 4.0 | 13.0 | 0.00 | 0.00 | 0.00 | 62 | 1017.3 |
| 20260507002016 | 67 | 270 | 4.0 | 16.0 | 0.00 | 0.00 | 0.00 | 59 | 1017.3 |
| 20260507001017 | 67 | 270 | 6.0 | 15.0 | 0.00 | 0.00 | 0.00 | 58 | 1017.2 |
| 20260507000015 | 67 | 248 | 5.0 | 14.0 | 0.00 | 0.00 | 0.00 | 58 | 1017.2 |
| 20260506235019 | 66 | 270 | 4.0 | 10.0 | 0.00 | 0.00 | 0.00 | 59 | 1017.0 |
| 20260506234016 | 66 | 270 | 5.0 | 14.0 | 0.00 | 0.00 | 0.00 | 61 | 1016.9 |
| 20260506233016 | 66 | 248 | 5.0 | 16.0 | 0.00 | 0.00 | 0.00 | 60 | 1016.8 |
| 20260506232016 | 66 | 270 | 8.0 | 20.0 | 0.00 | 0.00 | 0.00 | 61 | 1016.9 |
| 20260506231017 | 66 | 293 | 7.0 | 20.0 | 0.00 | 0.00 | 0.00 | 61 | 1016.9 |
| 20260506230036 | 66 | 270 | 6.0 | 17.0 | 0.00 | 0.00 | 0.00 | 62 | 1016.7 |
| 20260506225016 | 66 | 270 | 7.0 | 16.0 | 0.00 | 0.00 | 0.00 | 62 | 1016.6 |
| 20260506224056 | 66 | 248 | 5.0 | 12.0 | 0.00 | 0.00 | 0.00 | 62 | 1016.7 |
| 20260506223036 | 67 | 293 | 3.0 | 8.0 | 0.00 | 0.00 | 0.00 | 60 | 1016.9 |
| 20260506222016 | 67 | 270 | 5.0 | 18.0 | 0.00 | 0.00 | 0.00 | 59 | 1016.9 |
| 20260506221016 | 68 | 293 | 5.0 | 20.0 | 0.00 | 0.00 | 0.00 | 61 | 1016.9 |
| 20260506220016 | 68 | 270 | 6.0 | 17.0 | 0.00 | 0.00 | 0.00 | 60 | 1016.8 |
| 20260506215016 | 69 | 248 | 5.0 | 14.0 | 0.00 | 0.00 | 0.00 | 59 | 1017.0 |
| 20260506214015 | 68 | 270 | 7.0 | 22.0 | 0.00 | 0.00 | 0.00 | 62 | 1017.0 |
| 20260506213016 | 68 | 270 | 7.0 | 18.0 | 0.00 | 0.00 | 0.00 | 61 | 1017.0 |
| 20260506212015 | 68 | 248 | 7.0 | 19.0 | 0.00 | 0.00 | 0.00 | 59 | 1017.2 |
| 20260506211017 | 68 | 293 | 7.0 | 17.0 | 0.00 | 0.00 | 0.00 | 59 | 1017.1 |
| 20260506210036 | 68 | 270 | 6.0 | 15.0 | 0.00 | 0.00 | 0.00 | 59 | 1017.3 |
| 20260506205016 | 68 | 270 | 7.0 | 15.0 | 0.00 | 0.00 | 0.00 | 58 | 1017.6 |
| 20260506204016 | 68 | 270 | 6.0 | 13.0 | 0.00 | 0.00 | 0.00 | 58 | 1017.5 |
| 20260506203057 | 68 | 270 | 7.0 | 17.0 | 0.00 | 0.00 | 0.00 | 59 | 1017.4 |
| 20260506202017 | 68 | 270 | 6.0 | 18.0 | 0.00 | 0.00 | 0.00 | 59 | 1017.4 |
| 20260506201038 | 68 | 270 | 6.0 | 21.0 | 0.00 | 0.00 | 0.00 | 61 | 1017.3 |
| 20260506200037 | 68 | 158 | 5.0 | 23.0 | 0.00 | 0.00 | 0.00 | 61 | 1017.4 |
| 20260506195017 | 68 | 270 | 5.0 | 12.0 | 0.00 | 0.00 | 0.00 | 60 | 1017.5 |
| 20260506194058 | 68 | 293 | 4.0 | 15.0 | 0.00 | 0.00 | 0.00 | 61 | 1017.4 |
| 20260506193018 | 68 | 45 | 3.0 | 11.0 | 0.00 | 0.00 | 0.00 | 64 | 1017.6 |
| 20260506192017 | 67 | 270 | 3.0 | 7.0 | 0.00 | 0.00 | 0.00 | 63 | 1017.6 |
| 20260506191017 | 66 | 248 | 3.0 | 8.0 | 0.00 | 0.00 | 0.00 | 65 | 1017.8 |
| 20260506190018 | 66 | 270 | 5.0 | 15.0 | 0.00 | 0.00 | 0.00 | 63 | 1017.8 |
| 20260506185018 | 66 | 338 | 5.0 | 12.0 | 0.00 | 0.00 | 0.00 | 66 | 1017.7 |
| 20260506184017 | 65 | 270 | 6.0 | 20.0 | 0.00 | 0.00 | 0.00 | 66 | 1017.8 |
| 20260506183017 | 65 | 270 | 8.0 | 16.0 | 0.00 | 0.00 | 0.00 | 68 | 1017.7 |
| 20260506182036 | 65 | 248 | 6.0 | 12.0 | 0.00 | 0.00 | 0.00 | 70 | 1017.8 |
| 20260506181017 | 65 | 248 | 7.0 | 15.0 | 0.00 | 0.00 | 0.00 | 69 | 1017.5 |
| 20260506180017 | 64 | 135 | 4.0 | 11.0 | 0.00 | 0.00 | 0.00 | 70 | 1017.5 |
| 20260506175037 | 64 | 293 | 4.0 | 14.0 | 0.00 | 0.00 | 0.00 | 72 | 1017.8 |
| 20260506174017 | 64 | 270 | 5.0 | 16.0 | 0.00 | 0.00 | 0.00 | 69 | 1017.8 |
| 20260506173018 | 63 | 248 | 6.0 | 19.0 | 0.00 | 0.00 | 0.00 | 71 | 1017.9 |
| 20260506172017 | 64 | 203 | 4.0 | 12.0 | 0.00 | 0.00 | 0.00 | 72 | 1017.8 |
| 20260506171017 | 64 | 0 | 3.0 | 11.0 | 0.00 | 0.00 | 0.00 | 70 | 1017.7 |
| 20260506170017 | 64 | 270 | 3.0 | 10.0 | 0.00 | 0.00 | 0.00 | 70 | 1017.6 |
| 20260506165039 | 64 | 270 | 4.0 | 10.0 | 0.00 | 0.00 | 0.00 | 71 | 1017.7 |